Temp
17 16 17 17 15 13 15 16 17 18 18 17 18 17 16 16 16 15 16 16 16 16 15 15 14 14 14 14 14 14 15 15 15 14 13 12 11 11 11 10 10 10 10 10 11 11 11 11 11
16 15 16 17 14 14 15 15 17 18 17 17 18 17 17 15 16 16 15 16 16 15 15 14 14 14 14 14 14 15 15 15 14 12 11 11 12 11 11 10 10 10 10 10 10 11 11 11 11
16 15 16 13 12 14 15 16 17 18 17 18 17 17 16 15 16 16 16 16 15 15 15 14 14 14 14 14 15 15 15 14 13 12 12 11 12 11 11 10 11 10 10 10 10 11 11 11 11
15 15 15 13 13 14 16 17 18 16 16 18 17 14 15 15 16 16 16 16 15 15 14 14 14 14 14 15 15 14 14 13 12 12 11 12 12 12 12 12 10 10 10 10 11 11 11 11 11
14 14 12 12 14 16 15 17 18 16 17 16 17 14 14 14 15 16 15 15 14 15 14 14 14 14 15 15 14 13 13 12 12 11 11 13 12 12 12 11 10 10 11 11 11 11 11 10 10
14 13 11 12 14 15 16 18 18 18 17 16 16 14 14 14 15 15 15 15 14 14 14 14 14 14 15 15 14 13 13 13 12 11 13 13 13 12 12 11 11 11 11 10 10 11 10 10 10
12 10 11 13 14 15 16 19 18 17 17 16 17 12 14 14 15 15 15 14 14 14 14 14 14 14 15 15 14 14 13 12 13 13 13 12 12 12 11 11 11 11 10 10 10 10 10 10 10
13 10 12 12 14 15 17 18 19 19 17 18 19 14 13 15 14 15 15 14 13 14 14 14 14 14 15 14 14 14 14 13 13 13 12 12 12 12 11 11 10 10 10 10 10 10 10 10 10
12 11 9 12 14 15 17 17 18 18 18 17 18 18 18 16 15 14 14 13 13 13 13 14 14 14 14 14 14 14 14 13 13 13 12 12 12 11 11 10 10 10 10 10 10 10 9 9 10
11 10 10 13 15 16 16 16 17 17 15 15 16 17 18 16 14 14 14 13 13 13 13 13 14 14 14 14 14 13 13 13 13 13 12 12 12 11 10 10 9 9 10 10 9 9 9 9 9
12 10 11 14 15 16 16 16 16 16 15 16 17 18 17 16 14 14 14 14 13 13 13 13 14 14 14 14 14 13 13 13 13 13 12 12 12 11 10 10 10 9 9 9 9 9 9 8 8
11 12 13 14 15 15 15 15 15 16 17 17 18 18 17 16 15 15 15 15 13 13 13 13 14 14 14 14 14 13 13 13 13 12 12 12 11 11 10 10 9 9 9 9 9 9 9 8 8
10 11 12 13 14 14 14 14 14 16 18 18 18 17 17 17 16 15 14 14 13 13 13 13 14 14 14 14 13 13 13 13 13 12 12 12 11 11 10 10 10 9 9 9 9 8 8 8 6
8 8 9 12 12 13 12 13 14 17 18 18 17 17 17 17 16 14 14 13 14 14 14 13 13 13 13 14 13 13 13 13 13 12 12 12 11 11 10 10 10 10 10 9 8 8 8 8 6
9 8 10 10 12 11 13 12 11 15 16 17 16 16 15 15 14 16 15 15 15 14 14 13 13 13 13 14 13 13 13 13 13 13 12 12 11 10 9 10 10 10 10 10 9 8 9 8 7
7 8 8 11 11 12 13 12 14 15 15 16 16 15 14 14 15 13 14 13 13 14 13 13 12 12 12 13 13 13 13 13 13 13 12 12 11 10 10 11 11 11 10 10 9 8 9 8 8
5 7 9 10 12 12 11 13 13 15 14 15 16 15 15 13 13 13 13 13 13 14 14 13 12 12 12 13 13 13 13 13 13 13 12 12 11 11 11 11 11 11 11 10 9 9 9 9 9
5 5 8 9 11 11 12 11 13 14 14 14 15 15 14 13 15 14 13 14 13 14 13 13 13 13 13 13 12 12 12 12 12 12 12 12 12 11 11 11 11 10 11 10 9 9 9 8 8
4 4 5 9 9 6 10 12 11 13 13 12 13 14 14 14 15 14 14 14 14 13 13 13 13 13 13 13 12 12 12 12 12 12 13 12 12 11 11 11 11 11 11 11 9 9 8 9 8
4 4 4 6 8 8 9 9 12 13 13 13 14 13 14 16 13 14 14 13 14 13 13 13 13 13 13 13 13 12 12 13 13 13 13 12 12 12 11 11 11 11 11 10 10 10 10 8 8
4 4 4 5 7 8 6 9 11 12 14 14 14 15 15 16 15 13 13 14 14 14 14 13 13 14 13 13 12 12 11 12 12 12 12 12 12 12 11 11 11 11 10 11 10 10 10 9 9
4 5 5 6 5 6 8 9 12 11 12 13 14 14 15 15 16 15 15 14 15 15 14 14 14 14 13 13 13 13 13 13 13 14 13 13 12 12 11 11 11 11 10 10 10 10 9 9 8
5 6 6 6 5 5 6 5 9 12 11 12 13 14 14 15 16 16 15 16 16 14 15 14 14 14 14 13 13 13 12 13 14 14 13 13 12 12 12 11 11 11 11 10 10 10 10 9 8
6 5 6 6 5 5 7 6 9 11 13 13 14 14 14 14 16 17 17 17 16 15 14 14 14 14 14 13 13 13 13 13 13 13 13 13 12 12 12 12 11 11 11 10 10 10 9 9 9
6 4 1 4 5 5 9 8 9 11 12 13 13 14 14 15 15 17 17 17 16 14 15 14 14 14 14 14 13 13 13 13 14 14 14 13 13 13 13 12 12 11 11 10 10 9 9 9 8
4 4 5 5 6 7 8 8 10 12 13 14 15 15 14 14 14 16 18 18 18 16 16 15 14 14 14 14 14 14 14 13 14 13 14 13 13 14 13 12 12 12 11 10 10 9 9 9 9
4 4 7 5 6 7 10 10 13 9 9 9 10 12 13 14 14 15 17 17 18 17 17 16 15 15 15 14 14 14 14 13 13 13 13 13 13 13 13 12 12 11 11 10 10 10 9 8 9
6 7 5 5 6 9 9 10 9 8 8 8 8 7 10 13 13 14 15 15 17 17 18 16 16 16 16 15 14 14 14 14 13 13 13 13 13 12 12 12 11 11 11 10 10 10 9 8 8
4 4 7 7 6 8 10 8 8 6 6 6 6 7 8 10 12 13 14 15 16 16 15 15 15 15 15 15 15 15 14 14 13 13 13 13 13 12 12 11 11 11 11 11 10 9 8 8 8
6 7 7 6 8 7 7 6 6 5 6 6 6 6 7 7 9 11 12 13 13 14 15 15 15 14 15 15 14 15 14 14 14 14 14 13 13 13 13 11 11 11 11 11 10 9 9 9 7
Height
1518 1517 1519 1520 1529 1529 1532 1524 1516 1515 1514 1512 1514 1516 1517 1519 1522 1533 1522 1527 1531 1534 1537 1541 1545 1548 1551 1554 1557 1558 1560 1560 1561 1562 1563 1564 1565 1566 1567 1567 1568 1569 1569 1568 1568 1568 1569 1570 1569
1517 1518 1519 1518 1530 1536 1531 1518 1515 1511 1511 1512 1513 1516 1517 1520 1519 1520 1523 1527 1533 1535 1538 1542 1546 1549 1552 1554 1557 1559 1560 1561 1562 1564 1565 1565 1567 1567 1568 1569 1570 1571 1571 1570 1570 1570 1571 1571 1571
1517 1518 1519 1519 1529 1531 1527 1512 1509 1509 1511 1511 1513 1516 1518 1518 1519 1520 1524 1528 1533 1537 1539 1543 1547 1550 1553 1555 1557 1559 1561 1562 1564 1566 1567 1567 1568 1568 1569 1569 1570 1573 1573 1572 1572 1572 1573 1573 1573
1516 1520 1519 1522 1524 1516 1512 1507 1506 1509 1511 1511 1513 1517 1519 1518 1519 1521 1524 1529 1533 1537 1541 1544 1548 1551 1553 1556 1558 1560 1562 1564 1566 1568 1568 1568 1569 1570 1570 1571 1572 1573 1573 1573 1574 1574 1574 1575 1575
1515 1517 1522 1522 1517 1510 1507 1506 1506 1508 1508 1510 1512 1516 1518 1518 1519 1522 1524 1529 1534 1537 1541 1545 1548 1552 1554 1556 1557 1560 1563 1565 1568 1569 1569 1570 1570 1571 1572 1572 1573 1574 1574 1575 1576 1576 1577 1577 1577
1515 1515 1525 1525 1516 1506 1503 1504 1506 1506 1506 1509 1511 1514 1519 1519 1520 1522 1525 1530 1535 1538 1541 1545 1549 1552 1553 1556 1557 1560 1563 1566 1567 1568 1569 1570 1571 1572 1573 1574 1574 1576 1577 1577 1577 1578 1578 1578 1579
1514 1516 1519 1516 1513 1507 1501 1501 1503 1503 1505 1506 1508 1514 1518 1519 1521 1523 1526 1529 1534 1538 1541 1544 1548 1551 1554 1556 1558 1560 1562 1565 1566 1568 1570 1571 1572 1573 1574 1575 1576 1577 1578 1578 1579 1579 1580 1580 1581
1513 1513 1513 1512 1512 1509 1499 1500 1502 1502 1503 1504 1506 1510 1514 1515 1518 1523 1526 1530 1534 1538 1541 1544 1547 1550 1553 1555 1558 1560 1562 1565 1567 1569 1570 1572 1573 1574 1575 1577 1577 1579 1579 1579 1580 1580 1581 1582 1582
1510 1516 1517 1510 1507 1505 1500 1498 1500 1502 1501 1502 1503 1505 1507 1513 1516 1521 1525 1530 1533 1536 1540 1543 1546 1550 1552 1555 1558 1560 1563 1565 1567 1569 1570 1572 1573 1575 1576 1578 1579 1580 1580 1580 1580 1581 1581 1582 1583
1507 1512 1511 1504 1502 1501 1501 1499 1497 1501 1500 1501 1500 1503 1505 1510 1514 1515 1519 1523 1528 1532 1537 1541 1545 1549 1551 1554 1557 1559 1562 1565 1567 1569 1570 1572 1574 1575 1576 1577 1579 1580 1581 1582 1581 1581 1581 1582 1582
1501 1504 1503 1502 1502 1500 1499 1499 1497 1496 1500 1496 1495 1497 1502 1507 1512 1515 1517 1519 1524 1529 1534 1537 1542 1546 1550 1553 1556 1558 1561 1563 1566 1568 1570 1572 1573 1575 1576 1577 1578 1580 1581 1581 1582 1582 1582 1582 1584
1504 1500 1500 1500 1500 1499 1498 1497 1496 1494 1494 1495 1496 1497 1499 1504 1506 1508 1512 1515 1520 1526 1531 1535 1540 1544 1548 1551 1554 1557 1560 1562 1565 1568 1570 1571 1573 1575 1576 1578 1579 1580 1580 1581 1582 1583 1583 1583 1583
1499 1499 1498 1497 1496 1496 1495 1495 1495 1491 1491 1492 1493 1493 1495 1500 1502 1507 1512 1516 1519 1523 1528 1533 1537 1541 1545 1549 1552 1555 1558 1561 1564 1567 1569 1571 1573 1575 1576 1577 1579 1580 1580 1581 1581 1582 1583 1582 1583
1503 1502 1496 1494 1493 1493 1493 1493 1494 1488 1489 1487 1489 1489 1491 1495 1498 1505 1508 1510 1514 1519 1524 1530 1534 1539 1542 1546 1550 1553 1557 1560 1562 1565 1568 1571 1573 1574 1576 1577 1578 1579 1580 1580 1581 1582 1582 1582 1583
1499 1500 1492 1485 1490 1492 1494 1491 1481 1486 1487 1484 1488 1488 1490 1493 1498 1497 1501 1504 1507 1515 1521 1526 1532 1536 1540 1543 1548 1551 1554 1557 1560 1563 1566 1569 1571 1573 1574 1576 1577 1579 1579 1579 1580 1580 1581 1581 1581
1501 1497 1491 1483 1489 1492 1497 1468 1477 1482 1484 1481 1482 1486 1489 1490 1493 1498 1501 1504 1508 1512 1517 1524 1528 1532 1537 1541 1545 1548 1552 1555 1558 1561 1564 1567 1570 1571 1573 1575 1576 1577 1578 1579 1579 1580 1580 1580 1581
1502 1491 1489 1488 1482 1489 1488 1464 1474 1479 1478 1479 1477 1481 1485 1488 1492 1494 1497 1502 1506 1510 1516 1521 1525 1529 1533 1538 1542 1546 1549 1552 1556 1559 1561 1565 1567 1569 1571 1573 1575 1575 1576 1577 1578 1578 1580 1580 1580
1502 1500 1493 1488 1484 1483 1480 1471 1474 1474 1474 1475 1476 1475 1481 1483 1484 1488 1494 1498 1503 1508 1514 1518 1522 1526 1531 1536 1540 1544 1547 1549 1553 1555 1558 1562 1564 1567 1569 1571 1573 1574 1575 1575 1576 1577 1577 1579 1581
1497 1499 1497 1484 1483 1490 1476 1471 1474 1473 1471 1471 1472 1472 1474 1478 1481 1485 1490 1495 1499 1505 1509 1513 1517 1521 1526 1530 1533 1537 1539 1543 1547 1550 1554 1558 1561 1563 1566 1568 1570 1572 1573 1574 1575 1576 1577 1578 1580
1497 1499 1495 1489 1483 1487 1478 1471 1467 1467 1466 1467 1469 1469 1468 1472 1477 1480 1484 1488 1492 1498 1503 1508 1511 1516 1521 1525 1529 1532 1536 1539 1543 1547 1550 1553 1557 1560 1562 1565 1567 1569 1571 1571 1571 1572 1573 1575 1577
1490 1495 1490 1492 1488 1483 1484 1462 1461 1457 1456 1458 1459 1461 1462 1463 1468 1474 1477 1480 1486 1491 1494 1500 1506 1510 1516 1521 1525 1529 1534 1536 1539 1541 1544 1548 1552 1555 1558 1561 1563 1565 1566 1567 1569 1570 1571 1573 1574
1488 1477 1482 1487 1494 1488 1479 1456 1447 1453 1449 1449 1450 1453 1454 1457 1461 1466 1471 1474 1475 1479 1487 1494 1500 1504 1511 1515 1518 1522 1524 1527 1531 1535 1539 1543 1547 1551 1554 1557 1559 1561 1563 1563 1565 1566 1568 1570 1572
1471 1477 1482 1486 1487 1489 1479 1490 1443 1441 1440 1435 1437 1443 1446 1447 1452 1458 1463 1464 1467 1475 1480 1487 1494 1498 1504 1507 1511 1516 1519 1523 1527 1530 1534 1538 1542 1545 1549 1551 1554 1556 1558 1560 1561 1562 1563 1565 1568
1469 1478 1478 1481 1484 1483 1460 1483 1445 1433 1416 1420 1426 1431 1437 1440 1443 1449 1455 1459 1462 1468 1474 1479 1484 1488 1495 1500 1504 1508 1512 1516 1520 1524 1528 1531 1535 1538 1542 1545 1548 1551 1553 1554 1557 1557 1559 1561 1563
1469 1477 1499 1483 1472 1458 1442 1461 1444 1417 1414 1411 1414 1419 1423 1432 1433 1439 1445 1450 1454 1457 1464 1470 1475 1479 1485 1491 1495 1499 1504 1509 1512 1517 1521 1524 1528 1530 1534 1538 1542 1545 1548 1550 1551 1552 1554 1556 1557
1460 1466 1463 1459 1455 1434 1445 1450 1428 1414 1412 1409 1410 1413 1418 1422 1424 1428 1433 1440 1444 1449 1452 1459 1464 1470 1476 1481 1486 1491 1497 1501 1505 1509 1514 1517 1521 1525 1530 1533 1537 1539 1542 1544 1545 1546 1548 1550 1552
1456 1461 1453 1459 1445 1442 1426 1430 1411 1414 1412 1413 1412 1414 1413 1414 1416 1419 1425 1430 1435 1441 1444 1449 1455 1461 1466 1471 1478 1484 1489 1493 1496 1502 1508 1512 1515 1520 1524 1528 1530 1533 1535 1538 1539 1541 1541 1544 1547
1445 1446 1457 1459 1450 1421 1406 1417 1424 1421 1419 1419 1417 1416 1409 1404 1410 1415 1418 1422 1426 1432 1437 1441 1447 1451 1457 1465 1470 1476 1481 1486 1490 1496 1500 1505 1508 1514 1518 1520 1522 1524 1527 1529 1531 1533 1535 1537 1539
1441 1446 1440 1440 1444 1423 1411 1432 1429 1431 1427 1425 1419 1417 1400 1401 1407 1412 1414 1417 1421 1427 1432 1435 1440 1446 1451 1456 1462 1467 1472 1478 1483 1488 1493 1498 1502 1506 1510 1512 1515 1516 1518 1520 1522 1524 1526 1529 1534
1425 1426 1432 1439 1427 1429 1424 1443 1433 1431 1427 1426 1422 1414 1410 1411 1410 1410 1412 1415 1418 1423 1426 1430 1436 1442 1445 1451 1456 1460 1465 1471 1476 1480 1486 1491 1494 1497 1500 1504 1507 1509 1510 1511 1513 1515 1516 1520 1525
Wind_Speed
5 3 2 3 2 4 3 5 1 2 2 2 8 5 7 3 4 4 14 22 25 25 22 22 22 21 22 19 14 10 7 10 15 17 16 15 15 14 13 13 14 12 12 12 12 11 11 13 13
5 4 4 2 4 2 4 4 5 4 5 15 12 8 3 2 3 9 26 24 25 25 22 22 22 22 21 18 13 9 9 13 16 16 14 13 14 12 12 13 12 13 9 11 12 11 13 12 14
7 5 3 4 3 5 5 5 5 2 14 5 5 3 3 3 6 24 24 30 28 25 24 24 23 22 20 15 12 10 13 15 17 17 10 11 12 10 11 11 12 10 6 11 11 12 12 12 14
5 3 2 3 6 5 6 3 2 7 7 3 6 5 3 5 12 22 29 30 29 27 26 24 21 19 16 14 12 14 16 16 15 14 10 10 9 8 8 8 11 9 10 11 11 12 11 11 13
6 2 1 2 5 4 4 3 9 6 6 7 10 5 2 9 16 23 31 31 29 28 25 22 20 17 14 14 14 16 15 15 14 12 10 8 8 7 7 9 10 10 10 10 12 11 9 10 11
4 3 1 4 4 5 4 9 6 8 7 9 7 10 6 13 15 26 29 31 29 27 26 23 19 17 15 16 17 18 19 17 16 12 9 7 6 8 9 9 10 10 11 11 9 8 7 9 11
3 3 5 3 5 4 5 4 7 8 9 9 10 7 6 16 15 26 28 31 30 27 25 24 21 17 15 17 18 19 19 18 13 10 9 7 9 9 9 10 11 10 10 8 7 6 6 8 9
3 3 4 5 5 5 4 4 3 12 7 10 12 7 6 24 23 27 27 29 29 27 26 24 21 18 17 19 19 18 18 15 11 10 9 10 10 9 9 10 12 11 8 6 6 6 7 5 4
3 1 5 6 6 4 2 3 2 3 9 9 17 7 6 27 28 31 29 30 31 29 27 25 22 19 19 20 20 19 17 14 13 11 11 11 11 10 10 10 12 10 7 6 4 4 4 4 3
6 3 7 4 3 4 2 1 1 1 4 6 14 12 9 30 34 37 36 36 37 35 31 27 24 22 22 22 22 20 18 15 13 11 13 12 12 11 11 10 11 10 6 4 3 2 1 4 6
6 6 3 4 11 5 4 3 2 5 3 10 21 24 19 33 37 37 37 38 40 38 34 31 26 24 24 24 23 21 19 16 14 14 15 14 13 11 9 8 9 8 6 3 1 4 2 3 3
8 9 8 8 11 6 4 3 4 7 5 2 8 21 25 36 39 39 38 39 41 40 37 33 29 26 25 24 23 22 20 17 15 16 16 15 13 10 8 5 3 2 2 2 2 3 3 1 4
8 13 14 22 16 13 8 9 6 11 14 11 10 19 28 36 39 39 37 37 38 41 39 35 31 29 26 26 24 23 20 17 15 17 18 16 13 10 8 5 4 4 3 5 5 5 5 2 6
6 13 19 21 23 17 6 5 7 14 10 8 12 19 30 37 41 40 39 40 39 39 39 36 33 30 28 28 26 24 21 18 18 19 19 17 13 10 8 6 5 3 4 5 6 6 5 3 9
10 10 14 17 24 9 8 15 15 23 12 7 9 20 31 38 39 42 41 40 38 41 39 37 34 32 30 29 27 25 22 20 20 20 21 18 15 11 10 7 5 5 4 5 6 6 5 6 7
4 5 9 5 13 12 12 33 12 29 25 21 17 19 30 37 41 40 40 38 38 38 39 36 35 35 32 31 30 27 24 22 21 22 22 20 17 14 10 8 7 6 6 6 6 6 6 8 8
5 12 13 8 14 11 17 26 9 23 23 24 22 23 29 34 37 40 40 39 39 36 35 36 35 35 35 33 31 28 26 24 23 24 24 22 19 16 13 9 9 8 7 7 7 5 5 5 8
6 8 9 10 3 14 22 22 9 20 20 20 20 22 28 33 41 40 42 39 39 38 37 36 34 31 35 33 32 29 28 27 26 26 26 25 23 19 16 13 12 11 10 10 9 7 7 6 7
5 7 9 14 4 5 18 22 13 21 10 15 23 24 26 32 35 37 39 39 38 41 40 40 37 34 36 37 37 35 35 31 30 30 28 28 25 22 20 17 15 14 13 11 11 10 10 9 9
11 13 18 12 8 9 16 18 19 16 22 20 22 23 25 27 28 33 38 39 40 43 43 43 40 37 38 38 38 37 35 34 31 30 30 30 28 25 23 20 18 16 15 16 16 14 13 12 11
16 16 16 14 11 10 7 19 15 22 32 29 34 32 29 26 29 33 35 39 40 43 45 46 43 41 38 39 39 38 36 34 33 34 34 33 31 28 25 22 20 19 19 19 19 18 16 14 13
17 18 17 12 4 12 6 10 16 18 21 24 32 32 33 29 25 28 35 38 41 46 44 46 45 43 41 42 43 43 43 41 39 36 35 35 34 31 28 26 23 22 21 22 21 19 19 17 16
17 10 12 9 16 6 23 7 6 17 20 22 23 35 36 39 33 29 32 36 40 44 47 46 47 45 44 45 45 45 45 43 38 37 35 36 35 34 31 29 27 25 24 22 22 21 22 21 19
2 12 8 9 5 10 25 8 8 11 24 20 20 35 35 39 45 40 36 33 36 42 47 48 50 48 47 47 48 48 47 46 43 40 38 37 37 36 34 32 30 28 26 25 23 23 24 23 21
14 7 2 4 7 12 10 11 24 10 6 16 21 33 37 37 42 47 46 41 39 42 46 50 51 52 51 50 49 50 48 48 46 43 40 38 40 39 37 34 33 31 29 26 25 26 25 25 25
16 12 4 7 5 13 12 10 7 18 13 9 9 23 31 35 40 46 52 50 45 44 44 50 51 54 54 54 52 50 49 49 48 46 43 41 39 38 35 33 33 32 30 29 28 27 27 26 26
6 10 18 7 2 4 9 9 2 8 8 8 9 8 16 32 36 42 47 49 49 46 44 48 49 52 55 56 55 51 49 50 50 48 45 43 40 37 34 33 33 33 32 32 31 29 28 28 26
6 10 7 9 2 10 4 5 1 10 10 8 8 13 11 13 20 34 40 43 47 48 43 45 47 48 53 54 55 52 51 50 49 48 45 44 43 38 36 35 35 33 33 33 33 31 28 28 29
9 6 6 5 8 4 4 1 4 6 7 8 6 13 15 13 16 23 33 39 42 43 42 44 46 47 48 53 54 51 51 50 50 47 45 43 42 40 38 38 37 35 34 35 36 34 30 28 28
4 10 13 4 6 8 3 2 5 7 6 6 6 15 17 14 5 10 20 25 32 37 38 40 41 45 47 46 50 50 49 49 48 46 42 40 40 39 39 39 38 36 35 35 39 37 27 31 31
Wind_Direction
265 228 238 226 55 69 248 248 220 248 198 181 144 163 177 123 165 197 150 159 159 159 158 163 162 159 157 162 163 150 147 137 131 126 115 110 104 102 101 92 94 84 77 85 93 98 88 77 68
251 240 230 165 111 134 255 251 220 222 137 117 110 106 102 135 138 147 149 156 162 159 158 155 162 161 162 161 161 160 147 141 133 125 115 108 105 103 100 100 97 88 82 87 91 100 86 82 80
237 266 257 132 155 193 209 213 223 152 150 128 114 126 144 176 160 155 156 156 162 159 154 153 156 157 159 164 163 153 146 138 124 119 132 112 109 103 102 103 99 94 96 93 91 96 95 90 88
209 252 230 125 208 248 203 216 198 129 193 144 142 86 143 165 166 159 160 163 165 164 160 159 162 165 167 168 164 148 140 132 122 132 141 115 104 99 92 94 100 108 97 92 88 101 98 94 82
208 249 257 219 224 242 233 248 174 171 165 155 155 157 99 139 162 165 165 167 170 168 171 170 168 171 173 172 160 147 139 132 136 156 139 116 111 107 105 104 102 104 101 91 95 104 102 98 83
189 144 146 215 226 232 254 229 206 191 165 156 140 134 156 159 171 167 169 170 175 175 174 175 176 176 175 173 166 158 150 151 164 169 137 129 120 119 112 109 104 97 92 92 99 106 105 97 79
170 121 202 222 233 254 214 220 197 192 176 194 161 129 181 176 173 174 174 174 176 180 179 179 179 179 175 172 170 167 164 168 172 148 142 132 124 118 119 111 105 99 96 112 109 115 105 94 74
220 133 212 214 208 263 232 172 265 200 201 169 172 179 192 180 173 177 178 176 178 182 184 183 183 181 177 173 171 171 171 173 164 157 147 139 132 131 123 117 112 94 101 111 98 95 106 104 91
177 237 220 208 188 252 275 171 129 246 167 178 184 190 206 178 171 175 176 177 184 186 187 189 188 183 178 175 172 173 174 172 167 161 152 147 141 136 130 125 117 103 106 113 83 83 108 138 119
187 196 226 220 219 232 237 237 15 252 164 186 183 193 194 179 176 179 183 181 189 188 189 193 190 187 182 179 178 177 178 177 170 166 159 155 149 142 138 142 125 122 125 130 72 20 69 99 104
209 230 200 272 256 255 235 255 278 135 243 207 204 198 186 181 184 190 191 191 191 192 191 193 192 190 188 185 183 183 183 179 174 170 165 162 157 147 141 113 110 121 154 182 305 25 44 130 122
254 235 225 245 264 237 229 248 247 194 208 112 239 218 188 186 192 196 199 196 192 196 196 195 193 193 193 190 190 190 188 184 182 176 173 170 165 156 157 140 148 168 210 236 272 311 4 161 198
270 279 253 247 251 239 242 244 251 246 231 259 274 208 203 200 199 199 202 200 197 198 200 200 196 196 196 194 194 194 192 191 187 186 181 183 181 178 184 180 186 216 247 241 262 283 288 277 149
347 308 288 262 249 243 214 249 211 248 233 233 231 216 206 204 203 200 202 204 205 201 201 201 200 199 200 198 197 197 198 195 194 190 189 187 188 189 199 200 218 246 259 235 244 257 263 237 156
278 296 291 256 241 239 219 270 221 237 233 205 225 213 208 204 206 210 208 209 207 205 202 202 204 204 204 203 202 201 201 201 200 195 197 197 198 196 203 202 228 259 258 228 226 230 233 188 170
240 235 255 238 230 241 194 253 237 241 242 235 226 219 214 210 213 213 214 213 209 208 207 202 209 206 207 207 205 204 205 206 205 201 202 202 202 204 213 221 233 251 249 225 221 233 245 179 168
252 263 242 319 214 223 206 252 240 241 220 229 215 221 221 216 216 218 219 218 216 213 209 206 212 214 208 209 208 208 209 211 210 207 207 208 209 212 219 231 241 248 239 223 219 236 217 197 172
232 249 256 233 315 224 233 248 241 215 207 224 220 216 224 220 223 222 223 223 223 219 214 214 216 216 213 211 210 211 213 213 214 212 212 212 213 217 221 229 238 244 236 224 219 226 206 208 198
288 291 278 257 228 15 262 253 227 241 230 232 233 226 220 228 231 226 226 225 224 222 217 216 217 219 213 211 209 211 213 211 215 214 214 215 215 221 224 232 239 241 241 235 225 224 221 213 204
242 254 268 285 289 267 267 273 251 227 237 224 228 224 217 228 227 228 228 225 225 223 220 219 220 221 218 215 213 215 214 215 217 215 214 215 218 224 227 231 239 242 238 230 230 232 226 221 213
224 234 247 250 302 283 259 276 271 235 229 223 230 237 233 224 226 225 227 227 224 225 223 220 221 221 222 219 216 218 219 223 221 217 216 216 219 224 229 233 237 239 237 237 237 238 239 239 225
236 218 233 238 268 250 73 285 234 228 231 227 225 221 230 225 228 235 233 229 228 227 225 223 223 222 223 222 220 219 220 220 221 221 220 219 222 225 229 233 235 237 238 237 239 241 244 241 243
235 209 222 215 235 274 267 281 240 206 223 224 225 223 223 227 228 233 235 237 238 231 227 224 225 225 226 225 224 224 225 228 230 227 224 223 225 227 231 234 235 235 237 238 239 240 242 241 243
114 249 232 232 203 242 243 222 283 218 224 222 221 223 224 227 231 236 243 244 241 235 230 227 224 226 227 227 226 227 228 230 231 230 228 227 228 230 232 235 236 236 238 239 240 241 242 243 243
202 221 202 212 204 234 219 220 233 249 247 206 217 219 218 222 228 232 238 236 236 233 230 229 227 225 227 228 228 229 230 233 235 235 233 230 230 230 231 235 237 238 239 241 240 241 242 241 241
194 180 219 192 205 244 215 258 249 231 246 212 239 223 218 221 221 228 231 236 238 234 234 230 229 227 228 228 229 230 232 235 236 238 238 238 238 238 238 241 243 242 243 243 244 242 242 240 242
180 200 221 314 278 282 181 209 157 17 18 11 4 312 236 222 221 227 235 238 238 235 236 233 232 230 229 229 229 230 233 235 237 239 240 242 244 243 243 245 248 247 246 245 245 247 243 239 241
161 164 170 213 210 241 84 114 305 345 334 338 343 313 289 263 246 237 236 237 237 238 237 234 233 233 231 230 232 232 234 237 240 242 243 245 247 246 245 245 247 248 247 245 244 247 243 234 240
188 222 220 151 245 312 123 48 347 303 309 308 328 330 0 323 256 247 241 241 239 237 233 232 231 232 231 233 234 234 235 238 242 244 246 248 251 251 250 248 249 250 246 244 243 243 240 236 239
180 191 196 175 208 202 223 16 357 336 338 321 3 32 44 31 2 235 227 230 232 234 234 234 234 233 234 236 236 237 239 239 243 245 249 252 253 254 252 250 249 250 248 246 245 242 243 239 233